Timestamp[UTC];2m Lufttemperatur [degC] (tas);Stations-Luftdruck [Pa] (ps);relative Luftfeuchtigkeit [%] (hurs);spezifische Luftfeuchtigkeit [kg/kg] (huss);Niederschlagsmenge [mm] (pr);Windgeschwindigkeit in 2m [m/s] (sfcWind);Windrichtung [deg];maximale Windgeschwindigkeit [m/s] (wsgsmax);u-Windkomponente [m/s] (uas);v-Windkomponente [m/s] (vas);Sonneneinstrahlung [W/m2];Blitzrate [n];Blitzentfernung [km];Bodenfeuchte in 5cm Tiefe [vol%];Bodenfeuchte in 15cm Tiefe [vol%];Bodenfeuchte in 30cm Tiefe [vol%];Bodenfeuchte in 60cm Tiefe [vol%];Bodentemperatur in 5cm Tiefe [degC];Bodentemperatur in 15cm Tiefe [degC];Bodentemperatur in 30cm Tiefe [degC];Bodentemperatur in 60cm Tiefe [degC];Matrixpotential in 30cm Tiefe [kPa];Bodenfeuchte aus CRNS [vol%] (mrso);Neutronen Anzahl [N/h]
2021-08-01 00:00:00;14,9;99275;80;0,0085;0,0;1,8;262;3,4;-0,26;-1,8;0;0;0;26,0;26,6;31,8;30,4;16,2;16,8;16,8;16,3;-17,8;22,7;1643
2021-08-01 01:00:00;14,3;99260;81;0,0083;0,0;0,9;265;2,2;-0,06;-0,9;0;0;0;26,0;26,6;31,8;30,3;16,0;16,7;16,8;16,3;-17,9;22,7;1659
2021-08-01 02:00:00;14,6;99250;82;0,0086;0,0;1,4;257;2,5;-0,31;-1,37;0;0;0;26,0;26,6;31,8;30,3;15,9;16,5;16,7;16,3;-18,0;22,6;1633
2021-08-01 03:00:00;14,7;99243;82;0,0086;0,0;2,7;266;4,9;-0,19;-2,66;0;0;0;26,0;26,6;31,7;30,3;15,7;16,4;16,7;16,3;-18,0;22,5;1726
2021-08-01 04:00:00;14,1;99265;83;0,0084;0,0;2,8;256;5,1;-0,65;-2,74;6;0;0;26,0;26,6;31,7;30,3;15,5;16,3;16,6;16,3;-18,0;22,3;1665
2021-08-01 05:00:00;13,7;99250;84;0,0083;0,0;2,0;251;3,7;-0,65;-1,87;44;0;0;26,0;26,6;31,7;30,3;15,4;16,2;16,6;16,3;-18,1;22,2;1706
2021-08-01 06:00:00;15,2;99222;79;0,0086;0,0;1,8;269;3,9;-0,01;-1,82;214;0;0;26,0;26,6;31,7;30,2;15,4;16,1;16,5;16,3;-18,1;22,2;1616
2021-08-01 07:00:00;16,6;99223;69;0,0082;0,0;2,2;270;3,8;0,04;-2,17;358;0;0;26,0;26,6;31,7;30,2;15,5;16,1;16,5;16,3;-18,2;22,1;1732
2021-08-01 08:00:00;17,8;99230;61;0,0078;0,0;3,2;290;5,8;1,14;-2,95;462;0;0;26,0;26,6;31,7;30,2;15,8;16,1;16,4;16,3;-18,2;22,0;1687
2021-08-01 09:00:00;18,0;99285;60;0,0077;0,0;4,1;270;7,1;0,05;-3,99;609;0;0;25,9;26,6;31,6;30,2;16,2;16,2;16,4;16,3;-18,4;21,8;1668
2021-08-01 10:00:00;18,0;99313;58;0,0075;0,0;3,3;263;6,1;-0,38;-3,31;372;0;0;25,8;26,5;31,6;30,2;16,5;16,4;16,4;16,3;-18,4;21,8;1735
2021-08-01 11:00:00;18,9;99290;57;0,0078;0,0;3,5;279;6,5;0,55;-3,44;477;0;0;25,7;26,5;31,6;30,2;16,7;16,5;16,4;16,3;-18,5;21,7;1702
2021-08-01 12:00:00;19,9;99275;54;0,0079;0,0;3,7;276;6,3;0,38;-3,62;670;0;0;25,6;26,4;31,6;30,2;17,3;16,7;16,4;16,3;-18,6;21,6;1651
2021-08-01 13:00:00;20,3;99257;54;0,008;0,0;3,5;284;6,6;0,89;-3,33;616;0;0;25,6;26,4;31,6;30,2;17,7;17,0;16,4;16,3;-18,7;21,6;1668
2021-08-01 14:00:00;19,3;99282;58;0,0081;0,0;4,7;279;8,2;0,78;-4,59;336;0;0;25,5;26,4;31,5;30,2;17,6;17,2;16,5;16,3;-18,8;21,5;1718
2021-08-01 15:00:00;16,8;99330;67;0,0081;0,0;4,0;270;7,2;0,07;-3,92;317;1;7;25,4;26,3;31,5;30,3;17,2;17,2;16,6;16,2;-18,8;21,3;1713
2021-08-01 16:00:00;18,3;99345;60;0,008;0,0;4,3;286;7,5;1,19;-4,09;333;0;0;25,4;26,3;31,5;30,2;17,2;17,2;16,6;16,2;-19,0;21,6;1674
2021-08-01 17:00:00;18,1;99373;62;0,0081;0,0;3,4;277;6,3;0,43;-3,39;172;0;0;25,4;26,3;31,5;30,2;17,1;17,2;16,7;16,2;-19,0;21,7;1620
2021-08-01 18:00:00;17,5;99405;67;0,0084;0,0;2,4;279;4,5;0,4;-2,4;48;0;0;25,3;26,3;31,5;30,2;16,9;17,1;16,7;16,2;-19,1;22,0;1636
2021-08-01 19:00:00;16,3;99480;69;0,008;0,0;2,5;279;4,5;0,4;-2,46;4;0;0;25,3;26,2;31,4;30,2;16,6;17,0;16,7;16,2;-19,2;22,2;1639
2021-08-01 20:00:00;15,8;99513;71;0,008;0,0;1,6;270;2,9;0,03;-1,59;0;0;0;25,3;26,2;31,4;30,1;16,3;16,9;16,7;16,2;-19,2;22,4;1635
2021-08-01 21:00:00;15,8;99533;74;0,0083;0,0;2,1;277;4,0;0,29;-2,03;0;0;0;25,2;26,2;31,4;30,1;16,2;16,8;16,7;16,2;-19,2;22,7;1617
2021-08-01 22:00:00;15,7;99562;76;0,0085;0,0;2,1;290;3,8;0,74;-1,99;0;0;0;25,2;26,2;31,4;30,1;16,0;16,6;16,7;16,2;-19,2;23,0;1677
2021-08-01 23:00:00;15,5;99577;79;0,0088;0,0;1,9;278;3,5;0,27;-1,87;0;0;0;25,2;26,2;31,4;30,1;15,9;16,5;16,6;16,2;-19,3;23,3;1638
2021-08-02 00:00:00;15,4;99590;80;0,0089;0,0;1,7;294;3,2;0,72;-1,49;0;0;0;25,2;26,2;31,4;30,1;15,9;16,5;16,6;16,2;-19,3;23,6;1591
2021-08-02 01:00:00;15,0;99585;82;0,0088;0,0;1,0;283;1,9;0,22;-0,96;0;0;0;25,2;26,2;31,3;30,2;15,8;16,4;16,6;16,2;-19,4;23,9;1669
2021-08-02 02:00:00;14,5;99578;87;0,009;2,64;0,8;296;1,5;0,38;-0,66;0;0;0;25,2;26,2;31,3;30,3;15,8;16,3;16,5;16,2;-19,4;24,2;1694
2021-08-02 03:00:00;14,2;99593;89;0,009;3,7;0,8;290;1,6;0,3;-0,79;0;0;0;25,7;26,2;31,3;30,1;15,7;16,3;16,5;16,2;-19,4;24,5;1524
2021-08-02 04:00:00;14,0;99620;90;0,009;2,3;0,6;252;1,1;-0,17;-0,48;2;0;0;28,1;26,3;31,3;30,1;15,6;16,2;16,5;16,2;-19,4;24,9;1555
2021-08-02 05:00:00;13,8;99637;92;0,0091;5,48;0,8;238;1,5;-0,31;-0,38;16;0;0;31,2;26,4;31,3;30,1;15,5;16,1;16,4;16,2;-19,5;25,3;1469
2021-08-02 06:00:00;13,9;99647;92;0,0092;3,75;0,6;164;1,4;-0,1;-0,16;21;1;4;35,1;28,3;31,3;30,1;15,4;16,0;16,4;16,2;-19,6;25,4;1471
2021-08-02 07:00:00;13,4;99690;94;0,0091;5,77;1,6;319;2,7;1,18;-1,0;49;0;0;36,8;32,4;31,9;30,2;15,3;15,9;16,3;16,2;-19,3;25,8;1535
2021-08-02 08:00:00;13,2;99698;97;0,0092;0,68;2,1;325;3,5;1,7;-1,21;162;0;0;36,8;33,9;32,4;30,2;15,3;15,9;16,3;16,2;-17,9;26,1;1446
2021-08-02 09:00:00;13,2;99728;98;0,0093;0,0;1,6;315;2,9;1,13;-1,1;246;0;0;36,2;33,8;32,9;30,3;15,5;15,9;16,2;16,2;-15,1;26,2;1451
2021-08-02 10:00:00;14,6;99740;88;0,0092;0,24;2,4;326;4,1;2,03;-1,33;255;0;0;35,8;33,5;33,2;30,4;15,7;15,9;16,2;16,2;-13,0;26,4;1522
2021-08-02 11:00:00;14,5;99745;87;0,009;0,1;2,2;327;3,7;1,78;-1,14;262;0;0;35,4;33,3;33,4;30,5;15,8;16,0;16,1;16,2;-11,9;26,8;1501
2021-08-02 12:00:00;15,6;99720;83;0,0093;0,0;2,1;346;4,3;2,02;-0,49;520;0;0;35,1;33,1;33,6;30,5;16,1;16,1;16,1;16,2;-11,3;27,1;1460
2021-08-02 13:00:00;16,5;99702;76;0,009;0,0;2,7;323;4,7;2,15;-1,57;486;0;0;34,9;32,9;33,7;30,5;16,5;16,2;16,1;16,2;-10,9;27,1;1443
2021-08-02 14:00:00;16,2;99727;75;0,0087;0,05;2,4;288;4,0;0,81;-2,12;241;0;0;34,7;32,7;33,8;30,5;16,5;16,4;16,2;16,1;-10,6;27,5;1495
2021-08-02 15:00:00;17,6;99682;67;0,0085;0,0;2,3;293;4,4;0,91;-1,95;488;0;0;34,5;32,5;33,9;30,6;16,7;16,5;16,2;16,1;-10,4;27,9;1507
2021-08-02 16:00:00;18,3;99692;57;0,0075;0,0;2,3;306;4,2;1,37;-1,8;321;0;0;34,4;32,4;34,0;30,6;16,8;16,6;16,2;16,1;-10,4;27,8;1490
2021-08-02 17:00:00;17,4;99718;63;0,0078;0,0;1,9;94;3,4;1,87;0,1;147;0;0;34,2;32,3;34,0;30,6;16,6;16,6;16,3;16,1;-10,3;28,0;1523
2021-08-02 18:00:00;15,9;99753;71;0,008;0,0;0,9;23;1,6;0,82;0,36;50;0;0;34,1;32,2;34,0;30,6;16,5;16,6;16,3;16,1;-10,3;27,8;1472
2021-08-02 19:00:00;13,9;99798;81;0,008;0,0;0,6;250;1,2;-0,23;-0,32;4;0;0;34,1;32,1;34,1;30,6;16,2;16,6;16,4;16,1;-10,3;27,7;1487
2021-08-02 20:00:00;12,3;99815;87;0,0078;0,0;0,6;172;1,1;-0,55;0,05;0;0;0;34,0;32,0;34,1;30,6;15,9;16,5;16,4;16,1;-10,3;27,6;1540
2021-08-02 21:00:00;11,3;99803;88;0,0074;0,0;0,7;197;1,5;-0,71;-0,23;0;0;0;34,0;32,0;34,1;30,6;15,5;16,3;16,4;16,1;-10,3;27,5;1527
2021-08-02 22:00:00;11,1;99788;88;0,0073;0,0;0,9;190;1,5;-0,84;-0,14;0;0;0;33,9;31,9;34,1;30,6;15,2;16,1;16,3;16,1;-10,3;27,3;1489
2021-08-02 23:00:00;11,0;99768;89;0,0073;0,0;0,5;137;0,9;-0,36;0,32;0;0;0;33,8;31,8;34,1;30,6;14,9;15,9;16,3;16,1;-10,3;27,4;1531
2021-08-03 00:00:00;12,1;99740;89;0,0079;0,0;0,6;140;1,3;-0,44;0,35;0;0;0;33,8;31,8;34,2;30,6;14,8;15,7;16,2;16,1;-10,3;27,6;1551
2021-08-03 01:00:00;12,1;99713;91;0,0081;0,0;1,0;123;1,7;-0,53;0,78;0;0;0;33,7;31,7;34,2;30,6;14,8;15,6;16,1;16,1;-10,3;27,7;1543
2021-08-03 02:00:00;12,4;99685;91;0,0082;0,0;1,0;112;1,6;-0,4;0,93;0;0;0;33,7;31,7;34,2;30,6;14,8;15,6;16,1;16,1;-10,3;27,7;1528
2021-08-03 03:00:00;12,6;99655;91;0,0083;0,0;0,6;118;1,2;-0,2;0,28;0;0;0;33,7;31,7;34,2;30,6;14,8;15,5;16,0;16,1;-10,3;27,8;1554
2021-08-03 04:00:00;12,6;99650;92;0,0084;0,02;0,5;88;1,1;0,02;0,43;3;0;0;33,6;31,6;34,2;30,6;14,8;15,4;16,0;16,1;-10,3;27,8;1493
2021-08-03 05:00:00;12,7;99645;92;0,0085;0,26;0,5;40;1,4;0,38;0,28;13;0;0;33,6;31,6;34,2;30,6;14,8;15,4;15,9;16,1;-10,3;27,8;1539
2021-08-03 06:00:00;13,0;99613;93;0,0087;0,08;0,6;78;1,4;0,07;0,53;62;0;0;33,6;31,6;34,2;30,6;14,8;15,4;15,9;16,0;-10,3;27,8;1511
2021-08-03 07:00:00;13,8;99580;93;0,0092;0,31;1,2;105;2,6;-0,3;1,12;122;0;0;33,6;31,6;34,2;30,6;15,0;15,4;15,8;16,0;-10,3;27,9;1588
2021-08-03 08:00:00;14,6;99573;92;0,0096;0,0;2,1;109;3,8;-0,69;1,95;186;0;0;33,6;31,6;34,2;30,6;15,2;15,4;15,8;16,0;-10,3;27,8;1482
2021-08-03 09:00:00;15,3;99535;90;0,0098;0,0;1,5;108;3,0;-0,47;1,45;219;0;0;33,6;31,6;34,2;30,6;15,5;15,5;15,8;16,0;-10,4;28,0;1546
2021-08-03 10:00:00;15,8;99527;89;0,01;0,39;0,8;74;2,3;0,21;0,75;192;0;0;33,6;31,6;34,2;30,6;15,7;15,7;15,8;16,0;-10,3;28,1;1500
2021-08-03 11:00:00;16,8;99478;88;0,0106;0,34;1,1;51;2,7;0,7;0,86;316;0;0;33,7;31,6;34,2;30,6;16,0;15,8;15,8;16,0;-10,4;28,1;1472
2021-08-03 12:00:00;15,3;99480;90;0,0098;8,44;1,4;245;3,7;1,07;-0,21;69;0;0;34,9;32,5;34,3;30,6;16,1;16,0;15,8;16,0;-10,3;28,3;1415
2021-08-03 13:00:00;14,8;99470;98;0,0104;0,92;1,3;99;2,7;1,07;0,12;278;0;0;36,5;34,4;35,1;30,7;16,1;16,0;15,8;16,0;-9,9;28,4;1474
2021-08-03 14:00:00;15,3;99475;96;0,0104;0,89;0,9;57;2,3;0,42;0,7;131;0;0;36,4;34,5;35,6;30,8;16,2;16,1;15,9;15,9;-9,2;28,5;1486
2021-08-03 15:00:00;15,2;99480;96;0,0104;0,12;3,2;317;5,6;2,32;-2,11;377;0;0;36,3;34,4;35,8;30,8;16,4;16,2;15,9;15,9;-8,9;28,5;1504
2021-08-03 16:00:00;15,3;99495;91;0,01;0,0;3,1;313;5,4;2,12;-2,21;192;0;0;36,0;34,3;36,0;30,9;16,5;16,3;15,9;15,9;-8,9;28,6;1485
2021-08-03 17:00:00;15,4;99500;87;0,0096;0,0;1,9;287;3,1;0,57;-1,8;64;0;0;35,8;34,1;36,0;31,0;16,3;16,3;16,0;15,9;-8,9;28,7;1506
2021-08-03 18:00:00;15,6;99515;85;0,0095;0,0;1,7;269;2,9;-0,01;-1,68;52;0;0;35,5;33,9;36,0;31,0;16,2;16,3;16,0;15,9;-8,9;28,9;1427
2021-08-03 19:00:00;15,5;99543;85;0,0094;0,0;1,2;273;1,9;0,07;-1,18;13;0;0;35,4;33,7;36,0;31,0;16,1;16,3;16,0;15,9;-8,9;29,0;1516
2021-08-03 20:00:00;15,2;99595;85;0,0092;0,0;1,3;269;2,3;-0,01;-1,34;0;0;0;35,3;33,6;36,0;31,1;15,9;16,2;16,1;15,9;-8,9;29,0;1490
2021-08-03 21:00:00;14,2;99615;86;0,0087;0,0;1,0;284;1,8;0,21;-0,92;0;0;0;35,2;33,5;36,0;31,1;15,8;16,2;16,0;15,9;-8,9;28,7;1492
2021-08-03 22:00:00;13,5;99630;87;0,0084;0,0;1,2;266;1,9;-0,06;-1,19;0;0;0;35,1;33,4;35,9;31,1;15,5;16,1;16,1;15,9;-8,9;28,8;1488
2021-08-03 23:00:00;13,0;99640;88;0,0083;0,0;0,9;270;1,5;0,0;-0,85;0;0;0;35,1;33,3;35,9;31,2;15,3;16,0;16,1;15,9;-8,9;29,0;1460
2021-08-04 00:00:00;11,6;99632;91;0,0078;0,0;0,6;159;1,0;-0,2;-0,12;0;0;0;35,0;33,2;35,9;31,2;15,1;15,8;16,0;15,9;-8,9;28,8;1563
2021-08-04 01:00:00;11,1;99620;90;0,0075;0,0;0,9;209;1,3;-0,6;-0,45;0;0;0;35,0;33,1;35,8;31,2;14,7;15,7;16,0;15,9;-8,9;28,4;1535
2021-08-04 02:00:00;10,5;99603;91;0,0073;0,0;0,5;191;1,1;-0,36;-0,06;0;0;0;34,9;33,1;35,8;31,3;14,5;15,5;15,9;15,9;-8,9;28,5;1536
2021-08-04 03:00:00;10,0;99592;92;0,0071;0,0;0,8;219;1,3;-0,59;-0,45;0;0;0;34,9;33,0;35,8;31,3;14,2;15,3;15,9;15,9;-8,9;28,4;1527
2021-08-04 04:00:00;10,7;99615;91;0,0073;0,04;0,8;222;1,3;-0,61;-0,57;11;0;0;34,8;32,9;35,7;31,3;14,1;15,1;15,8;15,9;-8,9;28,5;1458
2021-08-04 05:00:00;12,1;99640;94;0,0083;0,02;0,7;232;1,3;-0,42;-0,55;71;0;0;34,8;32,9;35,7;31,3;14,1;15,0;15,7;15,9;-8,9;28,3;1487
2021-08-04 06:00:00;13,0;99657;96;0,009;0,02;0,4;251;0,9;-0,12;-0,37;132;0;0;34,8;32,8;35,7;31,3;14,3;15,0;15,7;15,9;-8,9;28,5;1436
2021-08-04 07:00:00;14,8;99650;91;0,0096;0,0;0,9;278;2,0;0,89;-0,04;306;0;0;34,7;32,8;35,7;31,3;14,5;15,0;15,6;15,9;-8,9;28,2;1586
2021-08-04 08:00:00;16,5;99635;79;0,0093;0,0;1,1;262;2,4;1,09;-0,15;451;0;0;34,7;32,8;35,6;31,4;14,9;15,1;15,5;15,9;-8,9;28,3;1554
2021-08-04 09:00:00;18,5;99625;66;0,0088;0,0;1,0;242;2,5;0,06;-0,1;592;0;0;34,6;32,7;35,6;31,4;15,4;15,2;15,5;15,9;-8,9;28,3;1495
2021-08-04 10:00:00;18,9;99610;61;0,0084;0,0;0,9;230;2,2;0,85;-0,18;436;0;0;34,6;32,7;35,6;31,4;16,0;15,5;15,5;15,8;-8,9;28,1;1454
2021-08-04 11:00:00;19,7;99580;57;0,0082;0,0;0,8;234;2,0;-0,14;-0,32;511;0;0;34,5;32,6;35,6;31,5;16,4;15,7;15,5;15,8;-8,9;28,0;1536
2021-08-04 12:00:00;20,5;99562;53;0,008;0,0;0,9;141;2,9;0,42;0,53;512;0;0;34,5;32,6;35,5;31,4;16,8;16,0;15,6;15,8;-8,9;27,9;1528
2021-08-04 13:00:00;21,9;99510;48;0,008;0,0;1,2;88;2,9;0,02;0,77;738;0;0;34,4;32,5;35,5;31,4;17,5;16,3;15,6;15,8;-9,0;27,9;1478
2021-08-04 14:00:00;21,4;99505;48;0,0076;0,0;1,0;116;2,6;0,78;0,32;403;1;5;34,3;32,4;35,5;31,4;17,8;16,7;15,7;15,8;-9,0;27,9;1520
2021-08-04 15:00:00;20,8;99490;50;0,0077;0,0;0,8;97;2,2;-0,09;0,82;138;0;0;34,3;32,4;35,4;31,4;17,7;16,9;15,9;15,8;-9,0;27,7;1513
2021-08-04 16:00:00;17,6;99498;72;0,009;0,0;3,2;238;6,9;-1,32;-2,79;56;0;0;34,2;32,4;35,4;31,5;17,3;16,9;16,0;15,8;-9,0;27,6;1539
2021-08-04 17:00:00;16,6;99493;78;0,0092;0,0;1,3;287;2,2;0,18;-1,1;55;0;0;34,2;32,3;35,4;31,6;17,0;16,9;16,1;15,8;-9,0;27,3;1458
2021-08-04 18:00:00;16,4;99488;80;0,0093;0,0;0,6;203;1,1;-0,33;0,03;22;0;0;34,2;32,3;35,4;31,4;16,9;16,8;16,2;15,8;-9,1;27,0;1545
2021-08-04 19:00:00;15,7;99502;86;0,0096;0,0;0,9;235;1,6;-0,48;-0,72;1;0;0;34,1;32,2;35,4;31,4;16,7;16,8;16,2;15,7;-9,1;26,9;1489
2021-08-04 20:00:00;15,3;99530;87;0,0095;0,0;0,5;282;0,9;0,03;-0,42;0;0;0;34,1;32,2;35,3;31,4;16,5;16,7;16,2;15,8;-9,1;27,1;1479
2021-08-04 21:00:00;14,8;99520;89;0,0094;0,0;0,7;220;1,3;-0,5;-0,52;0;0;0;34,1;32,2;35,3;31,4;16,3;16,6;16,2;15,8;-9,1;27,4;1565
2021-08-04 22:00:00;15,0;99530;88;0,0095;0,0;0,6;256;1,3;-0,16;-0,51;0;0;0;34,1;32,2;35,3;31,4;16,2;16,5;16,2;15,8;-9,1;27,4;1505
2021-08-04 23:00:00;14,6;99505;90;0,0093;0,0;0,8;236;1,3;-0,45;-0,37;0;0;0;34,0;32,1;35,3;31,4;16,1;16,4;16,2;15,8;-9,1;27,3;1514
2021-08-05 00:00:00;14,6;99480;89;0,0093;0,0;0,5;194;1,0;-0,48;-0,1;0;0;0;34,0;32,1;35,3;31,4;16,0;16,3;16,2;15,8;-9,1;27,4;1528
2021-08-05 01:00:00;14,5;99445;90;0,0093;0,0;0,4;212;0,8;-0,27;-0,15;0;0;0;34,0;32,1;35,3;31,4;15,9;16,3;16,2;15,8;-9,2;27,4;1551
2021-08-05 02:00:00;14,3;99395;89;0,0091;0,0;0,6;196;1,2;-0,61;-0,2;0;0;0;34,0;32,1;35,2;31,4;15,8;16,2;16,2;15,8;-9,2;27,4;1576
2021-08-05 03:00:00;14,3;99370;90;0,0092;0,0;0,5;231;1,0;-0,29;-0,4;0;0;0;33,9;32,1;35,2;31,4;15,7;16,1;16,2;15,8;-9,2;27,3;1580
2021-08-05 04:00:00;14,3;99348;89;0,0091;0,0;0,6;244;1,1;-0,2;-0,38;8;0;0;33,9;32,0;35,2;31,4;15,6;16,1;16,1;15,8;-9,2;27,3;1592
2021-08-05 05:00:00;14,9;99310;88;0,0094;0,0;0,9;207;1,7;-0,73;-0,44;56;0;0;33,9;32,0;35,2;31,4;15,6;16,0;16,1;15,8;-9,2;27,5;1596
2021-08-05 06:00:00;16,4;99303;84;0,0098;0,0;0,9;220;1,8;-0,55;-0,45;138;0;0;33,9;32,0;35,2;31,4;15,7;16,0;16,1;15,8;-9,2;27,6;1521
2021-08-05 07:00:00;17,6;99300;78;0,0098;0,0;0,6;183;1,7;0,23;-0,27;215;0;0;33,9;32,0;35,2;31,4;16,0;16,0;16,0;15,8;-9,2;27,6;1531
2021-08-05 08:00:00;18,0;99290;75;0,0098;0,0;1,0;91;2,3;1,0;0,03;247;0;0;33,8;31,9;35,2;31,4;16,2;16,1;16,0;15,8;-9,3;27,7;1491
2021-08-05 09:00:00;19,7;99248;67;0,0097;0,0;0,7;109;2,2;0,61;0,18;452;0;0;33,8;31,9;35,2;31,4;16,6;16,2;16,0;15,8;-9,3;27,6;1506
2021-08-05 10:00:00;19,5;99210;64;0,0091;0,43;1,4;284;3,0;0,29;-0,98;420;2;13;33,7;31,9;35,1;31,4;17,0;16,4;16,0;15,8;-9,3;27,9;1524
2021-08-05 11:00:00;19,0;99167;73;0,0102;0,0;1,0;281;2,0;0,15;-0,89;530;0;0;33,8;31,9;35,1;31,4;17,3;16,6;16,1;15,8;-9,3;27,9;1524
2021-08-05 12:00:00;21,6;99087;55;0,009;0,0;1,4;136;3,3;-0,96;0,7;802;0;0;33,7;31,8;35,1;31,4;18,3;16,9;16,1;15,8;-9,3;28,1;1588
2021-08-05 13:00:00;21,6;99050;51;0,0084;0,0;1,7;136;3,3;-1,12;1,11;313;0;0;33,7;31,8;35,1;31,4;19,0;17,3;16,2;15,8;-9,3;28,1;1528
2021-08-05 14:00:00;20,8;99023;61;0,0095;0,0;1,5;160;2,6;-1,36;0,49;215;0;0;33,6;31,8;35,1;31,4;18,8;17,6;16,3;15,8;-9,3;28,2;1587
2021-08-05 15:00:00;21,7;98950;56;0,0092;0,0;2,8;121;4,5;-1,17;2,26;375;0;0;33,6;31,7;35,1;31,4;19,0;17,8;16,4;15,8;-9,4;28,3;1566
2021-08-05 16:00:00;22,1;98920;53;0,0088;0,0;2,0;146;3,5;-1,67;1,11;303;0;0;33,5;31,7;35,0;31,4;19,1;18,0;16,6;15,8;-9,4;28,4;1537
2021-08-05 17:00:00;21,0;98898;61;0,0096;0,0;2,2;113;3,8;-0,84;1,98;95;0;0;33,5;31,7;35,0;31,4;18,9;18,1;16,7;15,8;-9,4;28,5;1490
2021-08-05 18:00:00;20,0;98870;68;0,01;0,0;1,6;135;3,0;-1,08;1,17;44;0;0;33,5;31,6;35,0;31,3;18,6;18,1;16,8;15,8;-9,4;28,8;1597
2021-08-05 19:00:00;17,7;98880;82;0,0105;1,48;1,7;179;4,2;-1,6;-0,05;2;0;0;33,5;31,6;35,0;31,3;18,3;18,0;16,9;15,8;-9,4;28,7;1548
2021-08-05 20:00:00;16,6;98865;89;0,0106;0,02;1,2;183;2,0;-1,21;-0,13;0;19;6;33,8;31,7;35,0;31,3;18,0;17,9;16,9;15,9;-9,4;28,7;1566
2021-08-05 21:00:00;16,3;98843;87;0,0102;0,0;1,6;196;2,7;-1,48;-0,51;0;0;0;33,8;31,7;35,0;31,3;17,6;17,8;16,9;15,9;-9,4;28,7;1547
2021-08-05 22:00:00;17,0;98805;87;0,0107;0,0;2,0;197;3,4;-1,88;-0,58;0;0;0;33,8;31,7;35,0;31,3;17,4;17,6;17,0;15,9;-9,4;28,6;1579
2021-08-05 23:00:00;17,0;98742;85;0,0105;0,0;2,0;193;3,1;-1,89;-0,47;0;0;0;33,7;31,7;35,0;31,3;17,3;17,5;17,0;15,9;-9,4;28,4;1532
2021-08-06 00:00:00;16,6;98685;85;0,0101;0,0;1,5;156;2,6;-1,37;0,62;0;0;0;33,7;31,7;35,0;31,3;17,2;17,4;17,0;15,9;-9,4;28,2;1592
2021-08-06 01:00:00;17,2;98647;79;0,0098;0,0;2,8;182;5,3;-2,74;-0,18;0;0;0;33,7;31,7;35,0;31,3;17,0;17,3;16,9;15,9;-9,4;28,2;1613
2021-08-06 02:00:00;17,0;98630;79;0,0097;0,0;1,6;170;3,9;-1,55;0,16;0;0;0;33,6;31,7;35,0;31,3;16,9;17,2;16,9;16,0;-9,4;28,3;1646
2021-08-06 03:00:00;16,2;98585;83;0,0097;0,0;1,2;144;2,1;-0,9;0,63;0;0;0;33,6;31,7;35,0;31,3;16,9;17,1;16,9;16,0;-9,4;28,4;1610
2021-08-06 04:00:00;15,7;98580;86;0,0097;0,0;1,3;124;2,0;-0,72;1,06;2;0;0;33,6;31,7;35,0;31,3;16,7;17,1;16,8;16,0;-9,4;28,3;1671
2021-08-06 05:00:00;16,0;98585;88;0,0101;0,1;1,3;126;2,2;-0,76;0,98;23;0;0;33,6;31,7;35,0;31,3;16,7;17,0;16,8;16,0;-9,5;28,3;1576
2021-08-06 06:00:00;17,1;98605;87;0,0107;0,02;1,3;154;2,4;-1,13;0,53;86;0;0;33,6;31,7;35,0;31,3;16,8;17,0;16,8;16,0;-9,5;28,1;1651
2021-08-06 07:00:00;18,1;98627;81;0,0107;0,0;1,7;189;2,7;-1,55;-0,34;163;0;0;33,6;31,7;35,0;31,3;17,0;17,0;16,8;16,0;-9,5;28,3;1580
2021-08-06 08:00:00;18,1;98678;76;0,01;0,0;3,1;276;6,2;0,31;-2,8;100;0;0;33,5;31,7;35,0;31,3;17,1;17,0;16,8;16,0;-9,5;28,2;1581
2021-08-06 09:00:00;18,4;98685;76;0,0103;0,0;2,4;272;5,1;0,03;-2,08;259;0;0;33,5;31,7;35,0;31,3;17,3;17,1;16,7;16,0;-9,5;28,0;1601
2021-08-06 10:00:00;20,4;98670;64;0,0097;0,0;4,3;234;8,2;-2,57;-3,41;479;0;0;33,4;31,6;34,9;31,3;17,7;17,2;16,7;16,1;-9,5;27,9;1654
2021-08-06 11:00:00;19,6;98717;63;0,0091;0,0;5,0;257;8,5;-1,08;-4,83;352;0;0;33,3;31,6;34,9;31,3;18,0;17,3;16,8;16,1;-9,5;27,6;1646
2021-08-06 12:00:00;20,8;98698;58;0,009;0,0;6,0;243;11,0;-2,67;-5,32;614;1;7;33,2;31,6;34,9;31,3;18,3;17,5;16,8;16,1;-9,5;27,5;1635
2021-08-06 13:00:00;21,1;98712;55;0,0087;0,0;5,9;230;9,6;-3,8;-4,45;605;0;0;33,1;31,5;34,9;31,3;18,9;17,7;16,8;16,1;-9,6;27,3;1539
2021-08-06 14:00:00;20,8;98737;55;0,0085;0,0;5,1;227;8,6;-3,41;-3,74;318;1;7;33,0;31,5;34,9;31,3;19,2;18,0;16,9;16,1;-9,6;27,2;1593
2021-08-06 15:00:00;20,8;98765;55;0,0085;0,0;4,5;220;7,5;-3,42;-2,93;276;2;12;32,9;31,4;34,8;31,3;19,0;18,2;17,0;16,1;-9,6;27,3;1602
2021-08-06 16:00:00;20,4;98808;56;0,0085;0,0;4,6;229;7,9;-2,98;-3,5;189;0;0;32,8;31,4;34,8;31,3;18,7;18,2;17,1;16,1;-9,7;27,3;1568
2021-08-06 17:00:00;19,6;98815;60;0,0087;0,0;3,8;228;7,2;-2,52;-2,86;81;0;0;32,7;31,3;34,8;31,3;18,4;18,2;17,1;16,1;-9,7;27,5;1587
2021-08-06 18:00:00;18,8;98850;64;0,0087;0,0;4,3;232;8,0;-2,58;-3,39;34;0;0;32,7;31,3;34,8;31,2;17,9;18,0;17,2;16,1;-9,7;27,1;1545
2021-08-06 19:00:00;18,0;98875;64;0,0083;0,0;3,2;225;5,9;-2,2;-2,22;3;0;0;32,7;31,3;34,8;31,2;17,5;17,9;17,2;16,1;-9,7;27,0;1624
2021-08-06 20:00:00;17,1;98885;70;0,0087;0,0;2,6;202;4,9;-2,38;-1,0;0;0;0;32,7;31,2;34,8;31,2;17,2;17,7;17,2;16,1;-9,8;26,6;1648
2021-08-06 21:00:00;17,1;98887;73;0,0089;0,0;2,0;189;3,5;-1,93;-0,34;0;0;0;32,7;31,2;34,7;31,2;17,1;17,5;17,2;16,1;-9,8;26,6;1639
2021-08-06 22:00:00;16,4;98858;74;0,0088;0,0;1,3;198;3,1;-1,18;-0,56;0;0;0;32,7;31,2;34,7;31,2;16,9;17,4;17,1;16,1;-9,8;26,5;1697
2021-08-06 23:00:00;16,3;98852;74;0,0086;0,0;2,7;240;5,0;-1,3;-1,96;0;0;0;32,6;31,2;34,7;31,2;16,6;17,2;17,1;16,2;-9,8;26,5;1611
2021-08-07 00:00:00;15,1;98868;79;0,0086;0,0;1,2;177;2,4;0,0;-0,23;0;0;0;32,6;31,2;34,7;31,2;16,3;17,0;17,0;16,2;-9,8;26,6;1652
2021-08-07 01:00:00;13,2;98853;84;0,008;0,0;1,1;125;2,2;-0,57;0,86;0;0;0;32,6;31,2;34,7;31,2;16,0;16,9;17,0;16,2;-9,8;26,5;1666
2021-08-07 02:00:00;13,3;98830;84;0,0081;0,0;1,1;154;2,1;-0,97;0,51;0;0;0;32,6;31,1;34,7;31,2;15,8;16,7;16,9;16,2;-9,9;26,4;1607
2021-08-07 03:00:00;12,5;98800;86;0,0079;0,0;0,8;126;1,6;-0,43;0,6;0;0;0;32,6;31,1;34,7;31,2;15,5;16,5;16,8;16,2;-9,9;26,2;1629
2021-08-07 04:00:00;13,5;98763;88;0,0086;0,0;1,6;120;2,9;-0,81;1,32;3;0;0;32,6;31,1;34,6;31,2;15,5;16,4;16,8;16,2;-9,9;26,1;1563
2021-08-07 05:00:00;14,4;98732;87;0,009;0,0;1,3;131;2,5;-0,58;-0,04;44;0;0;32,6;31,1;34,6;31,2;15,6;16,3;16,7;16,2;-9,9;26,2;1720
2021-08-07 06:00:00;16,4;98702;80;0,0095;0,0;2,9;204;5,1;-2,65;-1,26;97;0;0;32,6;31,1;34,6;31,2;15,8;16,3;16,6;16,2;-9,9;25,8;1698
2021-08-07 07:00:00;17,3;98690;77;0,0096;0,0;2,9;197;4,8;-2,75;-0,93;206;0;0;32,6;31,1;34,6;31,2;16,1;16,3;16,6;16,2;-10,0;25,6;1732
2021-08-07 08:00:00;18,0;98675;70;0,0092;0,0;3,5;203;5,9;-3,23;-1,4;252;0;0;32,5;31,1;34,6;31,2;16,4;16,4;16,5;16,2;-10,0;25,5;1617
2021-08-07 09:00:00;18,7;98665;64;0,0088;0,0;3,6;208;5,9;-3,14;-1,72;272;0;0;32,5;31,0;34,6;31,2;16,8;16,5;16,5;16,2;-10,0;25,5;1653
2021-08-07 10:00:00;17,5;98657;70;0,0089;0,35;3,3;216;5,5;-2,32;-2,1;231;0;0;32,4;31,0;34,6;31,2;17,0;16,7;16,5;16,2;-10,0;25,4;1672
2021-08-07 11:00:00;18,6;98580;69;0,0093;0,0;3,9;195;6,5;-3,66;-1,08;608;0;0;32,5;30,9;34,6;31,2;17,6;16,8;16,5;16,2;-10,0;25,5;1617
2021-08-07 12:00:00;20,8;98520;55;0,0085;0,0;4,4;196;7,8;-4,17;-1,27;592;0;0;32,4;30,9;34,5;31,2;18,4;17,1;16,5;16,2;-10,1;25,3;1755
2021-08-07 13:00:00;21,5;98502;45;0,0074;0,0;4,0;215;6,9;-3,17;-2,3;418;0;0;32,2;30,9;34,5;31,1;18,8;17,5;16,6;16,2;-10,1;25,1;1627
2021-08-07 14:00:00;21,0;98497;46;0,0073;0,0;3,8;197;6,5;-3,54;-1,19;296;0;0;32,1;30,8;34,5;31,1;18,6;17,7;16,7;16,2;-10,2;25,2;1716
2021-08-07 15:00:00;21,0;98455;50;0,0078;0,0;4,1;189;7,7;-4,08;-0,68;338;0;0;32,0;30,8;34,5;31,1;18,7;17,8;16,8;16,2;-10,2;25,2;1708
2021-08-07 16:00:00;20,5;98445;54;0,0082;0,0;4,2;192;7,1;-4,13;-0,9;236;4;12;31,9;30,8;34,5;31,1;18,5;17,9;16,9;16,2;-10,2;25,0;1586
2021-08-07 17:00:00;19,6;98493;57;0,0082;0,0;3,2;204;7,5;-2,86;-1,33;41;33;14;31,9;30,7;34,4;31,1;18,2;17,9;16,9;16,2;-10,2;24,8;1792
2021-08-07 18:00:00;18,3;98525;66;0,0088;0,0;1,9;204;3,4;-1,76;-0,7;46;32;11;31,9;30,7;34,4;31,1;17,8;17,8;17,0;16,2;-10,3;24,9;1676
2021-08-07 19:00:00;17,5;98552;69;0,0087;0,0;2,1;185;3,7;-2,02;-0,22;10;1;4;31,9;30,7;34,4;31,1;17,5;17,7;17,0;16,2;-10,3;25,1;1697
2021-08-07 20:00:00;17,1;98613;71;0,0087;0,0;2,8;208;5,1;-2,45;-1,38;0;0;0;31,9;30,7;34,4;31,1;17,2;17,5;17,0;16,2;-10,3;25,4;1645
2021-08-07 21:00:00;16,1;98670;73;0,0084;0,0;2,8;219;5,1;-2,13;-1,75;0;0;0;31,9;30,6;34,4;31,1;16,8;17,4;17,0;16,2;-10,3;25,4;1736
2021-08-07 22:00:00;16,1;98730;72;0,0083;0,0;3,2;230;5,8;-2,05;-2,42;0;0;0;31,9;30,6;34,4;31,1;16,5;17,2;17,0;16,2;-10,4;25,5;1663
2021-08-07 23:00:00;15,8;98783;74;0,0083;0,0;3,3;214;6,0;-2,66;-1,9;0;0;0;31,9;30,6;34,4;31,1;16,3;17,0;17,0;16,2;-10,4;25,8;1691
2021-08-08 00:00:00;16,3;98820;70;0,0082;0,0;4,7;237;8,6;-2,52;-4,02;0;0;0;31,8;30,6;34,3;31,2;16,1;16,8;16,9;16,2;-10,4;25,6;1713
2021-08-08 01:00:00;16,4;98848;67;0,0078;0,0;5,3;247;9,6;-2,03;-4,87;0;0;0;31,6;30,6;34,3;31,1;15,8;16,7;16,8;16,2;-10,4;25,8;1649
2021-08-08 02:00:00;16,0;98910;67;0,0077;0,0;4,7;251;8,6;-1,51;-4,42;0;0;0;31,4;30,6;34,3;31,1;15,5;16,5;16,8;16,2;-10,4;25,6;1602
2021-08-08 03:00:00;15,4;98967;69;0,0076;0,0;3,6;243;6,8;-1,53;-3,16;0;0;0;31,3;30,5;34,3;31,1;15,3;16,3;16,7;16,2;-10,5;25,6;1685
2021-08-08 04:00:00;15,3;99015;69;0,0076;0,0;3,1;245;5,5;-1,31;-2,82;4;0;0;31,3;30,5;34,3;31,5;15,2;16,2;16,6;16,2;-10,5;25,6;1637
2021-08-08 05:00:00;15,4;99078;70;0,0076;0,0;4,0;242;7,1;-1,86;-3,49;70;0;0;31,3;30,5;34,3;31,6;15,1;16,0;16,6;16,2;-10,5;25,5;1634
2021-08-08 06:00:00;15,8;99100;67;0,0076;0,0;3,5;244;6,3;-1,52;-3,18;151;0;0;31,2;30,5;34,3;31,1;15,2;16,0;16,5;16,2;-10,6;25,9;1584
2021-08-08 07:00:00;16,1;99163;64;0,0074;0,0;4,2;250;7,2;-1,37;-3,93;208;0;0;31,1;30,4;34,2;31,0;15,3;15,9;16,4;16,2;-10,6;26,0;1576
2021-08-08 08:00:00;17,1;99207;57;0,007;0,0;4,5;243;7,8;-1,99;-3,98;423;0;0;31,0;30,4;34,2;31,0;15,5;15,9;16,3;16,2;-10,7;26,2;1567